Year,Month,Day,Hour,Minute,Value (Times are PST for insolation in W/m^2)
2015,11,01,00,00,0.00
2015,11,01,00,01,0.00
2015,11,01,00,02,0.00
2015,11,01,00,03,0.00
2015,11,01,00,04,0.00
2015,11,01,00,05,0.00
2015,11,01,00,06,0.00
2015,11,01,00,07,0.00
2015,11,01,00,08,0.00
2015,11,01,00,09,0.00
2015,11,01,00,10,0.00
2015,11,01,00,11,0.00
2015,11,01,00,12,0.00
2015,11,01,00,13,0.00
2015,11,01,00,14,0.00
2015,11,01,00,15,0.00
2015,11,01,00,16,0.00
2015,11,01,00,17,0.00
2015,11,01,00,18,0.00
2015,11,01,00,19,0.00
2015,11,01,00,20,0.00
2015,11,01,00,21,0.00
2015,11,01,00,22,0.00
2015,11,01,00,23,0.00
2015,11,01,00,24,0.00
2015,11,01,00,25,0.00
2015,11,01,00,26,0.00
2015,11,01,00,27,0.00
2015,11,01,00,28,0.00
2015,11,01,00,29,0.00
2015,11,01,00,30,0.00
2015,11,01,00,31,0.00
2015,11,01,00,32,0.00
2015,11,01,00,33,0.00
2015,11,01,00,34,0.00
2015,11,01,00,35,0.00
2015,11,01,00,36,0.00
2015,11,01,00,37,0.00
2015,11,01,00,38,0.00
2015,11,01,00,39,0.00
2015,11,01,00,40,0.00
2015,11,01,00,41,0.00
2015,11,01,00,42,0.00
2015,11,01,00,43,0.00
2015,11,01,00,44,0.00
2015,11,01,00,45,0.00
2015,11,01,00,46,0.00
2015,11,01,00,47,0.00
2015,11,01,00,48,0.00
2015,11,01,00,49,0.00
2015,11,01,00,50,0.00
2015,11,01,00,51,0.00
2015,11,01,00,52,0.00
2015,11,01,00,53,0.00
2015,11,01,00,54,0.00
2015,11,01,00,55,0.00
2015,11,01,00,56,0.00
2015,11,01,00,57,0.00
2015,11,01,00,58,0.00
2015,11,01,00,59,0.00
2015,11,01,01,00,0.00
2015,11,01,01,01,0.00
2015,11,01,01,02,0.00
2015,11,01,01,03,0.00
2015,11,01,01,04,0.00
2015,11,01,01,05,0.00
2015,11,01,01,06,0.00
2015,11,01,01,07,0.00
2015,11,01,01,08,0.00
2015,11,01,01,09,0.00
2015,11,01,01,10,0.00
2015,11,01,01,11,0.00
2015,11,01,01,12,0.00
2015,11,01,01,13,0.00
2015,11,01,01,14,0.00
2015,11,01,01,15,0.00
2015,11,01,01,16,0.00
2015,11,01,01,17,0.00
2015,11,01,01,18,0.00
2015,11,01,01,19,0.00
2015,11,01,01,20,0.00
2015,11,01,01,21,0.00
2015,11,01,01,22,0.00
2015,11,01,01,23,0.00
2015,11,01,01,24,0.00
2015,11,01,01,25,0.00
2015,11,01,01,26,0.00
2015,11,01,01,27,0.00
2015,11,01,01,28,0.00
2015,11,01,01,29,0.00
2015,11,01,01,30,0.00
2015,11,01,01,31,0.00
2015,11,01,01,32,0.00
2015,11,01,01,33,0.00
2015,11,01,01,34,0.00
2015,11,01,01,35,0.00
2015,11,01,01,36,0.00
2015,11,01,01,37,0.00
2015,11,01,01,38,0.00
2015,11,01,01,39,0.00
2015,11,01,01,40,0.00
2015,11,01,01,41,0.00
2015,11,01,01,42,0.00
2015,11,01,01,43,0.00
2015,11,01,01,44,0.00
2015,11,01,01,45,0.00
2015,11,01,01,46,0.00
2015,11,01,01,47,0.00
2015,11,01,01,48,0.00
2015,11,01,01,49,0.00
2015,11,01,01,50,0.00
2015,11,01,01,51,0.00
2015,11,01,01,52,0.00
2015,11,01,01,53,0.00
2015,11,01,01,54,0.00
2015,11,01,01,55,0.00
2015,11,01,01,56,0.00
2015,11,01,01,57,0.00
2015,11,01,01,58,0.00
2015,11,01,01,59,0.00
2015,11,01,02,06,0.00
2015,11,01,02,07,0.00
2015,11,01,02,08,0.00
2015,11,01,02,09,0.00
2015,11,01,02,10,0.00
2015,11,01,02,11,0.00
2015,11,01,02,12,0.00
2015,11,01,02,13,0.00
2015,11,01,02,14,0.00
2015,11,01,02,15,0.00
2015,11,01,02,16,0.00
2015,11,01,02,17,0.00
2015,11,01,02,18,0.00
2015,11,01,02,19,0.00
2015,11,01,02,20,0.00
2015,11,01,02,21,0.00
2015,11,01,02,22,0.00
2015,11,01,02,23,0.00
2015,11,01,02,24,0.00
2015,11,01,02,25,0.00
2015,11,01,02,26,0.00
2015,11,01,02,27,0.00
2015,11,01,02,28,0.00
2015,11,01,02,29,0.00
2015,11,01,02,30,0.00
2015,11,01,02,31,0.00
2015,11,01,02,32,0.00
2015,11,01,02,33,0.00
2015,11,01,02,34,0.00
2015,11,01,02,35,0.00
2015,11,01,02,36,0.00
2015,11,01,02,37,0.00
2015,11,01,02,38,0.00
2015,11,01,02,39,0.00
2015,11,01,02,40,0.00
2015,11,01,02,41,0.00
2015,11,01,02,42,0.00
2015,11,01,02,43,0.00
2015,11,01,02,44,0.00
2015,11,01,02,45,0.00
2015,11,01,02,46,0.00
2015,11,01,02,47,0.00
2015,11,01,02,48,0.00
2015,11,01,02,49,0.00
2015,11,01,02,50,0.00
2015,11,01,02,51,0.00
2015,11,01,02,52,0.00
2015,11,01,02,53,0.00
2015,11,01,02,54,0.00
2015,11,01,02,55,0.00
2015,11,01,02,56,0.00
2015,11,01,02,57,0.00
2015,11,01,02,58,0.00
2015,11,01,02,59,0.00
2015,11,01,03,00,0.00
2015,11,01,03,01,0.00
2015,11,01,03,02,0.00
2015,11,01,03,03,0.00
2015,11,01,03,04,0.00
2015,11,01,03,05,0.00
2015,11,01,03,06,0.00
2015,11,01,03,07,0.00
2015,11,01,03,08,0.00
2015,11,01,03,09,0.00
2015,11,01,03,10,0.00
2015,11,01,03,11,0.00
2015,11,01,03,12,0.00
2015,11,01,03,13,0.00
2015,11,01,03,14,0.00
2015,11,01,03,15,0.00
2015,11,01,03,16,0.00
2015,11,01,03,17,0.00
2015,11,01,03,18,0.00
2015,11,01,03,19,0.00
2015,11,01,03,20,0.00
2015,11,01,03,21,0.00
2015,11,01,03,22,0.00
2015,11,01,03,23,0.00
2015,11,01,03,24,0.00
2015,11,01,03,25,0.00
2015,11,01,03,26,0.00
2015,11,01,03,27,0.00
2015,11,01,03,28,0.00
2015,11,01,03,29,0.00
2015,11,01,03,30,0.00
2015,11,01,03,31,0.00
2015,11,01,03,32,0.00
2015,11,01,03,33,0.00
2015,11,01,03,34,0.00
2015,11,01,03,35,0.00
2015,11,01,03,36,0.00
2015,11,01,03,37,0.00
2015,11,01,03,38,0.00
2015,11,01,03,39,0.00
2015,11,01,03,40,0.00
2015,11,01,03,41,0.00
2015,11,01,03,42,0.00
2015,11,01,03,43,0.00
2015,11,01,03,44,0.00
2015,11,01,03,45,0.00
2015,11,01,03,46,0.00
2015,11,01,03,47,0.00
2015,11,01,03,48,0.00
2015,11,01,03,49,0.00
2015,11,01,03,50,0.00
2015,11,01,03,51,0.00
2015,11,01,03,52,0.00
2015,11,01,03,53,0.00
2015,11,01,03,54,0.00
2015,11,01,03,55,0.00
2015,11,01,03,56,0.00
2015,11,01,03,57,0.00
2015,11,01,03,58,0.00
2015,11,01,03,59,0.00
2015,11,01,04,00,0.00
2015,11,01,04,01,0.00
2015,11,01,04,02,0.00
2015,11,01,04,03,0.00
2015,11,01,04,04,0.00
2015,11,01,04,05,0.00
2015,11,01,04,06,0.00
2015,11,01,04,07,0.00
2015,11,01,04,08,0.00
2015,11,01,04,09,0.00
2015,11,01,04,10,0.00
2015,11,01,04,11,0.00
2015,11,01,04,12,0.00
2015,11,01,04,13,0.00
2015,11,01,04,14,0.00
2015,11,01,04,15,0.00
2015,11,01,04,16,0.00
2015,11,01,04,17,0.00
2015,11,01,04,18,0.00
2015,11,01,04,19,0.00
2015,11,01,04,20,0.00
2015,11,01,04,21,0.00
2015,11,01,04,22,0.00
2015,11,01,04,23,0.00
2015,11,01,04,24,0.00
2015,11,01,04,25,0.00
2015,11,01,04,26,0.00
2015,11,01,04,27,0.00
2015,11,01,04,28,0.00
2015,11,01,04,29,0.00
2015,11,01,04,30,0.00
2015,11,01,04,31,0.00
2015,11,01,04,32,0.00
2015,11,01,04,33,0.00
2015,11,01,04,34,0.00
2015,11,01,04,35,0.00
2015,11,01,04,36,0.00
2015,11,01,04,37,0.00
2015,11,01,04,38,0.00
2015,11,01,04,39,0.00
2015,11,01,04,40,0.00
2015,11,01,04,41,0.00
2015,11,01,04,42,0.00
2015,11,01,04,43,0.00
2015,11,01,04,44,0.00
2015,11,01,04,45,0.00
2015,11,01,04,46,0.00
2015,11,01,04,47,0.00
2015,11,01,04,48,0.00
2015,11,01,04,49,0.00
2015,11,01,04,50,0.00
2015,11,01,04,51,0.00
2015,11,01,04,52,0.00
2015,11,01,04,53,0.00
2015,11,01,04,54,0.00
2015,11,01,04,55,0.00
2015,11,01,04,56,0.00
2015,11,01,04,57,0.00
2015,11,01,04,58,0.00
2015,11,01,04,59,0.00
2015,11,01,05,00,0.00
2015,11,01,05,01,0.00
2015,11,01,05,02,0.00
2015,11,01,05,03,0.00
2015,11,01,05,04,0.00
2015,11,01,05,05,0.00
2015,11,01,05,06,0.00
2015,11,01,05,07,0.00
2015,11,01,05,08,0.00
2015,11,01,05,09,0.00
2015,11,01,05,10,0.00
2015,11,01,05,11,0.00
2015,11,01,05,12,0.00
2015,11,01,05,13,0.00
2015,11,01,05,14,0.00
2015,11,01,05,15,0.00
2015,11,01,05,16,0.00
2015,11,01,05,17,0.00
2015,11,01,05,18,0.00
2015,11,01,05,19,0.00
2015,11,01,05,20,0.00
2015,11,01,05,21,0.00
2015,11,01,05,22,0.00
2015,11,01,05,23,0.00
2015,11,01,05,24,0.00
2015,11,01,05,25,0.00
2015,11,01,05,26,0.00
2015,11,01,05,27,0.00
2015,11,01,05,28,0.00
2015,11,01,05,29,0.00
2015,11,01,05,30,0.00
2015,11,01,05,31,0.00
2015,11,01,05,32,0.00
2015,11,01,05,33,0.00
2015,11,01,05,34,0.00
2015,11,01,05,35,0.00
2015,11,01,05,36,0.00
2015,11,01,05,37,0.00
2015,11,01,05,38,0.00
2015,11,01,05,39,0.00
2015,11,01,05,40,0.00
2015,11,01,05,41,0.00
2015,11,01,05,42,0.00
2015,11,01,05,43,0.00
2015,11,01,05,44,0.00
2015,11,01,05,45,0.00
2015,11,01,05,46,0.00
2015,11,01,05,47,0.00
2015,11,01,05,48,0.00
2015,11,01,05,49,0.00
2015,11,01,05,50,0.00
2015,11,01,05,51,0.00
2015,11,01,05,52,0.00
2015,11,01,05,53,0.00
2015,11,01,05,54,0.00
2015,11,01,05,55,0.00
2015,11,01,05,56,0.00
2015,11,01,05,57,0.00
2015,11,01,05,58,0.00
2015,11,01,05,59,0.00
2015,11,01,06,00,0.00
2015,11,01,06,01,0.00
2015,11,01,06,02,0.00
2015,11,01,06,03,0.00
2015,11,01,06,04,0.00
2015,11,01,06,05,0.00
2015,11,01,06,06,0.00
2015,11,01,06,07,0.00
2015,11,01,06,08,0.00
2015,11,01,06,09,0.00
2015,11,01,06,10,0.00
2015,11,01,06,11,0.00
2015,11,01,06,12,0.00
2015,11,01,06,13,0.00
2015,11,01,06,14,0.00
2015,11,01,06,15,0.00
2015,11,01,06,16,0.00
2015,11,01,06,17,0.00
2015,11,01,06,18,0.00
2015,11,01,06,19,0.00
2015,11,01,06,20,0.00
2015,11,01,06,21,0.00
2015,11,01,06,22,0.00
2015,11,01,06,23,0.00
2015,11,01,06,24,0.00
2015,11,01,06,25,0.00
2015,11,01,06,26,0.00
2015,11,01,06,27,0.00
2015,11,01,06,28,0.00
2015,11,01,06,29,0.00
2015,11,01,06,30,0.00
2015,11,01,06,31,0.00
2015,11,01,06,32,0.00
2015,11,01,06,33,0.00
2015,11,01,06,34,0.00
2015,11,01,06,35,0.00
2015,11,01,06,36,0.00
2015,11,01,06,37,0.00
2015,11,01,06,38,0.00
2015,11,01,06,39,0.00
2015,11,01,06,40,0.00
2015,11,01,06,41,0.00
2015,11,01,06,42,0.00
2015,11,01,06,43,0.00
2015,11,01,06,44,0.00
2015,11,01,06,45,0.00
2015,11,01,06,46,0.00
2015,11,01,06,47,0.00
2015,11,01,06,48,0.00
2015,11,01,06,49,0.00
2015,11,01,06,50,0.00
2015,11,01,06,51,0.00
2015,11,01,06,52,0.00
2015,11,01,06,53,0.00
2015,11,01,06,54,0.00
2015,11,01,06,55,0.00
2015,11,01,06,56,0.00
2015,11,01,06,57,0.00
2015,11,01,06,58,0.00
2015,11,01,06,59,0.00
2015,11,01,07,00,0.00
2015,11,01,07,01,0.00
2015,11,01,07,02,0.00
2015,11,01,07,03,0.00
2015,11,01,07,04,0.00
2015,11,01,07,05,0.00
2015,11,01,07,06,0.00
2015,11,01,07,07,0.00
2015,11,01,07,08,3.30
2015,11,01,07,09,6.40
2015,11,01,07,10,8.50
2015,11,01,07,11,11.60
2015,11,01,07,12,15.60
2015,11,01,07,13,19.00
2015,11,01,07,14,21.00
2015,11,01,07,15,20.70
2015,11,01,07,16,19.00
2015,11,01,07,17,18.70
2015,11,01,07,18,18.00
2015,11,01,07,19,18.00
2015,11,01,07,20,18.00
2015,11,01,07,21,18.00
2015,11,01,07,22,18.00
2015,11,01,07,23,16.70
2015,11,01,07,24,17.40
2015,11,01,07,25,18.00
2015,11,01,07,26,18.00
2015,11,01,07,27,18.90
2015,11,01,07,28,19.00
2015,11,01,07,29,18.90
2015,11,01,07,30,17.70
2015,11,01,07,31,15.10
2015,11,01,07,32,11.70
2015,11,01,07,33,10.30
2015,11,01,07,34,9.00
2015,11,01,07,35,9.00
2015,11,01,07,36,8.00
2015,11,01,07,37,8.20
2015,11,01,07,38,9.00
2015,11,01,07,39,9.00
2015,11,01,07,40,9.00
2015,11,01,07,41,10.70
2015,11,01,07,42,11.00
2015,11,01,07,43,12.00
2015,11,01,07,44,12.20
2015,11,01,07,45,14.30
2015,11,01,07,46,16.50
2015,11,01,07,47,18.00
2015,11,01,07,48,18.30
2015,11,01,07,49,19.80
2015,11,01,07,50,22.00
2015,11,01,07,51,23.00
2015,11,01,07,52,23.00
2015,11,01,07,53,24.30
2015,11,01,07,54,23.60
2015,11,01,07,55,23.00
2015,11,01,07,56,23.00
2015,11,01,07,57,23.00
2015,11,01,07,58,24.90
2015,11,01,07,59,25.10
2015,11,01,08,00,26.30
2015,11,01,08,01,28.50
2015,11,01,08,02,30.00
2015,11,01,08,03,30.00
2015,11,01,08,04,30.00
2015,11,01,08,05,29.00
2015,11,01,08,06,27.00
2015,11,01,08,07,25.40
2015,11,01,08,08,23.70
2015,11,01,08,09,21.60
2015,11,01,08,10,21.00
2015,11,01,08,11,19.30
2015,11,01,08,12,19.00
2015,11,01,08,13,19.00
2015,11,01,08,14,19.00
2015,11,01,08,15,19.30
2015,11,01,08,16,21.00
2015,11,01,08,17,21.60
2015,11,01,08,18,23.00
2015,11,01,08,19,23.80
2015,11,01,08,20,25.00
2015,11,01,08,21,25.00
2015,11,01,08,22,23.80
2015,11,01,08,23,23.00
2015,11,01,08,24,23.00
2015,11,01,08,25,23.00
2015,11,01,08,26,25.60
2015,11,01,08,27,31.40
2015,11,01,08,28,39.00
2015,11,01,08,29,46.50
2015,11,01,08,30,51.40
2015,11,01,08,31,54.90
2015,11,01,08,32,58.00
2015,11,01,08,33,58.00
2015,11,01,08,34,58.00
2015,11,01,08,35,58.00
2015,11,01,08,36,58.00
2015,11,01,08,37,58.00
2015,11,01,08,38,59.30
2015,11,01,08,39,60.00
2015,11,01,08,40,58.50
2015,11,01,08,41,56.40
2015,11,01,08,42,54.20
2015,11,01,08,43,52.90
2015,11,01,08,44,48.80
2015,11,01,08,45,46.90
2015,11,01,08,46,46.00
2015,11,01,08,47,45.40
2015,11,01,08,48,44.00
2015,11,01,08,49,44.00
2015,11,01,08,50,44.00
2015,11,01,08,51,43.00
2015,11,01,08,52,42.00
2015,11,01,08,53,42.00
2015,11,01,08,54,43.40
2015,11,01,08,55,45.50
2015,11,01,08,56,46.90
2015,11,01,08,57,47.00
2015,11,01,08,58,48.90
2015,11,01,08,59,49.00
2015,11,01,09,00,49.00
2015,11,01,09,01,49.00
2015,11,01,09,02,49.00
2015,11,01,09,03,49.70
2015,11,01,09,04,51.00
2015,11,01,09,05,51.00
2015,11,01,09,06,51.00
2015,11,01,09,07,51.00
2015,11,01,09,08,51.00
2015,11,01,09,09,51.00
2015,11,01,09,10,52.50
2015,11,01,09,11,53.00
2015,11,01,09,12,53.90
2015,11,01,09,13,54.00
2015,11,01,09,14,54.00
2015,11,01,09,15,54.00
2015,11,01,09,16,53.80
2015,11,01,09,17,52.40
2015,11,01,09,18,50.30
2015,11,01,09,19,48.20
2015,11,01,09,20,46.50
2015,11,01,09,21,46.00
2015,11,01,09,22,46.60
2015,11,01,09,23,48.30
2015,11,01,09,24,50.40
2015,11,01,09,25,52.50
2015,11,01,09,26,55.60
2015,11,01,09,27,57.80
2015,11,01,09,28,61.90
2015,11,01,09,29,63.20
2015,11,01,09,30,65.30
2015,11,01,09,31,67.50
2015,11,01,09,32,69.90
2015,11,01,09,33,72.70
2015,11,01,09,34,74.00
2015,11,01,09,35,74.00
2015,11,01,09,36,74.00
2015,11,01,09,37,74.00
2015,11,01,09,38,74.00
2015,11,01,09,39,76.10
2015,11,01,09,40,78.50
2015,11,01,09,41,80.70
2015,11,01,09,42,85.50
2015,11,01,09,43,94.90
2015,11,01,09,44,102.70
2015,11,01,09,45,110.00
2015,11,01,09,46,117.60
2015,11,01,09,47,124.40
2015,11,01,09,48,130.00
2015,11,01,09,49,135.20
2015,11,01,09,50,137.00
2015,11,01,09,51,135.40
2015,11,01,09,52,128.70
2015,11,01,09,53,115.70
2015,11,01,09,54,99.60
2015,11,01,09,55,82.80
2015,11,01,09,56,67.50
2015,11,01,09,57,56.90
2015,11,01,09,58,49.30
2015,11,01,09,59,47.00
2015,11,01,10,00,47.60
2015,11,01,10,01,52.30
2015,11,01,10,02,60.50
2015,11,01,10,03,71.00
2015,11,01,10,04,85.50
2015,11,01,10,05,96.40
2015,11,01,10,06,98.00
2015,11,01,10,07,98.00
2015,11,01,10,08,113.30
2015,11,01,10,09,122.40
2015,11,01,10,10,121.50
2015,11,01,10,11,118.40
2015,11,01,10,12,118.00
2015,11,01,10,13,118.10
2015,11,01,10,14,120.00
2015,11,01,10,15,120.00
2015,11,01,10,16,119.50
2015,11,01,10,17,118.00
2015,11,01,10,18,119.00
2015,11,01,10,19,125.50
2015,11,01,10,20,143.00
2015,11,01,10,21,173.30
2015,11,01,10,22,213.60
2015,11,01,10,23,250.00
2015,11,01,10,24,279.30
2015,11,01,10,25,304.00
2015,11,01,10,26,322.70
2015,11,01,10,27,335.00
2015,11,01,10,28,328.70
2015,11,01,10,29,314.60
2015,11,01,10,30,297.90
2015,11,01,10,31,276.30
2015,11,01,10,32,264.10
2015,11,01,10,33,253.30
2015,11,01,10,34,241.10
2015,11,01,10,35,227.30
2015,11,01,10,36,211.60
2015,11,01,10,37,197.70
2015,11,01,10,38,191.10
2015,11,01,10,39,190.00
2015,11,01,10,40,192.30
2015,11,01,10,41,198.10
2015,11,01,10,42,205.30
2015,11,01,10,43,211.00
2015,11,01,10,44,216.70
2015,11,01,10,45,223.60
2015,11,01,10,46,227.60
2015,11,01,10,47,232.50
2015,11,01,10,48,239.70
2015,11,01,10,49,240.20
2015,11,01,10,50,239.90
2015,11,01,10,51,238.90
2015,11,01,10,52,236.40
2015,11,01,10,53,233.50
2015,11,01,10,54,232.00
2015,11,01,10,55,237.30
2015,11,01,10,56,248.80
2015,11,01,10,57,262.80
2015,11,01,10,58,278.30
2015,11,01,10,59,301.60
2015,11,01,11,00,305.70
2015,11,01,11,01,287.20
2015,11,01,11,02,265.30
2015,11,01,11,03,244.00
2015,11,01,11,04,221.20
2015,11,01,11,05,197.50
2015,11,01,11,06,173.40
2015,11,01,11,07,146.00
2015,11,01,11,08,123.70
2015,11,01,11,09,108.70
2015,11,01,11,10,102.70
2015,11,01,11,11,109.70
2015,11,01,11,12,126.40
2015,11,01,11,13,147.10
2015,11,01,11,14,152.30
2015,11,01,11,15,193.60
2015,11,01,11,16,195.40
2015,11,01,11,17,188.00
2015,11,01,11,18,180.70
2015,11,01,11,19,173.10
2015,11,01,11,20,164.70
2015,11,01,11,21,155.30
2015,11,01,11,22,145.70
2015,11,01,11,23,135.30
2015,11,01,11,24,125.60
2015,11,01,11,25,119.10
2015,11,01,11,26,112.00
2015,11,01,11,27,102.90
2015,11,01,11,28,91.50
2015,11,01,11,29,80.20
2015,11,01,11,30,71.30
2015,11,01,11,31,66.10
2015,11,01,11,32,62.70
2015,11,01,11,33,62.00
2015,11,01,11,34,62.00
2015,11,01,11,35,63.40
2015,11,01,11,36,67.60
2015,11,01,11,37,73.50
2015,11,01,11,38,80.70
2015,11,01,11,39,88.70
2015,11,01,11,40,96.40
2015,11,01,11,41,101.40
2015,11,01,11,42,102.00
2015,11,01,11,43,103.90
2015,11,01,11,44,104.30
2015,11,01,11,45,108.00
2015,11,01,11,46,116.00
2015,11,01,11,47,125.60
2015,11,01,11,48,132.70
2015,11,01,11,49,132.40
2015,11,01,11,50,127.60
2015,11,01,11,51,124.00
2015,11,01,11,52,126.00
2015,11,01,11,53,141.30
2015,11,01,11,54,176.60
2015,11,01,11,55,225.90
2015,11,01,11,56,254.10
2015,11,01,11,57,343.90
2015,11,01,11,58,328.60
2015,11,01,11,59,336.90
2015,11,01,12,00,355.00
2015,11,01,12,01,429.30
2015,11,01,12,02,488.00
2015,11,01,12,03,509.70
2015,11,01,12,04,502.20
2015,11,01,12,05,501.00
2015,11,01,12,06,501.00
2015,11,01,12,07,355.60
2015,11,01,12,08,232.30
2015,11,01,12,09,218.90
2015,11,01,12,10,225.00
2015,11,01,12,11,227.00
2015,11,01,12,12,218.90
2015,11,01,12,13,214.00
2015,11,01,12,14,208.50
2015,11,01,12,15,203.30
2015,11,01,12,16,199.70
2015,11,01,12,17,203.10
2015,11,01,12,18,201.30
2015,11,01,12,19,182.60
2015,11,01,12,20,162.80
2015,11,01,12,21,153.40
2015,11,01,12,22,151.00
2015,11,01,12,23,155.50
2015,11,01,12,24,168.00
2015,11,01,12,25,187.20
2015,11,01,12,26,204.30
2015,11,01,12,27,212.40
2015,11,01,12,28,206.30
2015,11,01,12,29,188.50
2015,11,01,12,30,171.70
2015,11,01,12,31,155.70
2015,11,01,12,32,143.00
2015,11,01,12,33,133.30
2015,11,01,12,34,130.00
2015,11,01,12,35,128.60
2015,11,01,12,36,124.90
2015,11,01,12,37,120.00
2015,11,01,12,38,114.70
2015,11,01,12,39,111.60
2015,11,01,12,40,109.50
2015,11,01,12,41,107.30
2015,11,01,12,42,105.20
2015,11,01,12,43,105.00
2015,11,01,12,44,105.00
2015,11,01,12,45,105.00
2015,11,01,12,46,104.30
2015,11,01,12,47,100.60
2015,11,01,12,48,102.00
2015,11,01,12,49,102.80
2015,11,01,12,50,104.00
2015,11,01,12,51,104.00
2015,11,01,12,52,102.90
2015,11,01,12,53,102.00
2015,11,01,12,54,104.10
2015,11,01,12,55,108.00
2015,11,01,12,56,107.40
2015,11,01,12,57,102.50
2015,11,01,12,58,95.10
2015,11,01,12,59,91.60
2015,11,01,13,00,98.10
2015,11,01,13,01,106.60
2015,11,01,13,02,113.30
2015,11,01,13,03,114.70
2015,11,01,13,04,116.80
2015,11,01,13,05,118.00
2015,11,01,13,06,119.60
2015,11,01,13,07,124.40
2015,11,01,13,08,127.60
2015,11,01,13,09,125.90
2015,11,01,13,10,121.10
2015,11,01,13,11,116.60
2015,11,01,13,12,119.60
2015,11,01,13,13,130.10
2015,11,01,13,14,142.40
2015,11,01,13,15,146.00
2015,11,01,13,16,144.00
2015,11,01,13,17,134.10
2015,11,01,13,18,124.00
2015,11,01,13,19,116.40
2015,11,01,13,20,113.50
2015,11,01,13,21,112.00
2015,11,01,13,22,115.10
2015,11,01,13,23,124.70
2015,11,01,13,24,134.40
2015,11,01,13,25,138.50
2015,11,01,13,26,139.00
2015,11,01,13,27,129.00
2015,11,01,13,28,123.20
2015,11,01,13,29,117.60
2015,11,01,13,30,113.90
2015,11,01,13,31,113.00
2015,11,01,13,32,111.90
2015,11,01,13,33,106.70
2015,11,01,13,34,98.30
2015,11,01,13,35,88.70
2015,11,01,13,36,84.00
2015,11,01,13,37,84.00
2015,11,01,13,38,84.00
2015,11,01,13,39,84.00
2015,11,01,13,40,64.20
2015,11,01,13,41,56.40
2015,11,01,13,42,53.30
2015,11,01,13,43,49.20
2015,11,01,13,44,46.90
2015,11,01,13,45,45.70
2015,11,01,13,46,44.00
2015,11,01,13,47,44.00
2015,11,01,13,48,44.00
2015,11,01,13,49,43.20
2015,11,01,13,50,42.00
2015,11,01,13,51,42.00
2015,11,01,13,52,42.00
2015,11,01,13,53,43.30
2015,11,01,13,54,45.40
2015,11,01,13,55,49.90
2015,11,01,13,56,57.00
2015,11,01,13,57,64.30
2015,11,01,13,58,76.00
2015,11,01,13,59,89.00
2015,11,01,14,00,99.30
2015,11,01,14,01,107.50
2015,11,01,14,02,107.60
2015,11,01,14,03,102.00
2015,11,01,14,04,95.30
2015,11,01,14,05,87.80
2015,11,01,14,06,81.40
2015,11,01,14,07,77.80
2015,11,01,14,08,78.30
2015,11,01,14,09,79.00
2015,11,01,14,10,80.50
2015,11,01,14,11,81.00
2015,11,01,14,12,79.20
2015,11,01,14,13,77.10
2015,11,01,14,14,75.80
2015,11,01,14,15,74.00
2015,11,01,14,16,74.00
2015,11,01,14,17,74.00
2015,11,01,14,18,74.00
2015,11,01,14,19,74.80
2015,11,01,14,20,76.00
2015,11,01,14,21,75.00
2015,11,01,14,22,72.90
2015,11,01,14,23,70.10
2015,11,01,14,24,67.60
2015,11,01,14,25,68.50
2015,11,01,14,26,73.30
2015,11,01,14,27,76.70
2015,11,01,14,28,80.60
2015,11,01,14,29,76.70
2015,11,01,14,30,74.00
2015,11,01,14,31,74.00
2015,11,01,14,32,74.00
2015,11,01,14,33,74.70
2015,11,01,14,34,76.00
2015,11,01,14,35,76.00
2015,11,01,14,36,73.90
2015,11,01,14,37,70.90
2015,11,01,14,38,69.40
2015,11,01,14,39,66.10
2015,11,01,14,40,63.50
2015,11,01,14,41,63.00
2015,11,01,14,42,64.80
2015,11,01,14,43,69.00
2015,11,01,14,44,74.50
2015,11,01,14,45,79.70
2015,11,01,14,46,85.40
2015,11,01,14,47,92.00
2015,11,01,14,48,99.30
2015,11,01,14,49,106.70
2015,11,01,14,50,112.40
2015,11,01,14,51,113.50
2015,11,01,14,52,108.40
2015,11,01,14,53,99.90
2015,11,01,14,54,94.10
2015,11,01,14,55,94.50
2015,11,01,14,56,95.00
2015,11,01,14,57,90.50
2015,11,01,14,58,81.40
2015,11,01,14,59,69.50
2015,11,01,15,00,64.60
2015,11,01,15,01,62.00
2015,11,01,15,02,61.40
2015,11,01,15,03,59.30
2015,11,01,15,04,56.40
2015,11,01,15,05,53.50
2015,11,01,15,06,50.90
2015,11,01,15,07,50.20
2015,11,01,15,08,52.30
2015,11,01,15,09,55.10
2015,11,01,15,10,57.50
2015,11,01,15,11,56.40
2015,11,01,15,12,54.20
2015,11,01,15,13,51.10
2015,11,01,15,14,49.00
2015,11,01,15,15,49.00
2015,11,01,15,16,49.40
2015,11,01,15,17,51.00
2015,11,01,15,18,51.00
2015,11,01,15,19,50.20
2015,11,01,15,20,48.10
2015,11,01,15,21,46.50
2015,11,01,15,22,46.00
2015,11,01,15,23,46.00
2015,11,01,15,24,46.00
2015,11,01,15,25,46.00
2015,11,01,15,26,44.30
2015,11,01,15,27,40.40
2015,11,01,15,28,37.00
2015,11,01,15,29,35.00
2015,11,01,15,30,35.00
2015,11,01,15,31,35.80
2015,11,01,15,32,39.80
2015,11,01,15,33,44.30
2015,11,01,15,34,50.60
2015,11,01,15,35,54.40
2015,11,01,15,36,54.40
2015,11,01,15,37,49.00
2015,11,01,15,38,41.30
2015,11,01,15,39,34.50
2015,11,01,15,40,29.10
2015,11,01,15,41,26.30
2015,11,01,15,42,25.10
2015,11,01,15,43,26.00
2015,11,01,15,44,26.20
2015,11,01,15,45,28.00
2015,11,01,15,46,27.50
2015,11,01,15,47,25.70
2015,11,01,15,48,24.30
2015,11,01,15,49,22.20
2015,11,01,15,50,21.00
2015,11,01,15,51,20.00
2015,11,01,15,52,19.00
2015,11,01,15,53,20.30
2015,11,01,15,54,21.00
2015,11,01,15,55,22.50
2015,11,01,15,56,23.00
2015,11,01,15,57,23.00
2015,11,01,15,58,23.00
2015,11,01,15,59,23.20
2015,11,01,16,00,25.00
2015,11,01,16,01,25.00
2015,11,01,16,02,25.00
2015,11,01,16,03,25.00
2015,11,01,16,04,25.40
2015,11,01,16,05,26.00
2015,11,01,16,06,25.50
2015,11,01,16,07,25.00
2015,11,01,16,08,25.00
2015,11,01,16,09,35.00
2015,11,01,16,10,36.00
2015,11,01,16,11,36.60
2015,11,01,16,12,33.40
2015,11,01,16,13,33.00
2015,11,01,16,14,36.50
2015,11,01,16,15,31.10
2015,11,01,16,16,25.80
2015,11,01,16,17,25.00
2015,11,01,16,18,25.00
2015,11,01,16,19,24.20
2015,11,01,16,20,23.00
2015,11,01,16,21,24.00
2015,11,01,16,22,25.00
2015,11,01,16,23,25.00
2015,11,01,16,24,25.70
2015,11,01,16,25,27.50
2015,11,01,16,26,26.30
2015,11,01,16,27,26.00
2015,11,01,16,28,25.00
2015,11,01,16,29,22.80
2015,11,01,16,30,21.00
2015,11,01,16,31,20.60
2015,11,01,16,32,18.70
2015,11,01,16,33,17.30
2015,11,01,16,34,16.00
2015,11,01,16,35,16.00
2015,11,01,16,36,15.00
2015,11,01,16,37,14.00
2015,11,01,16,38,12.70
2015,11,01,16,39,12.00
2015,11,01,16,40,12.00
2015,11,01,16,41,12.00
2015,11,01,16,42,11.10
2015,11,01,16,43,11.00
2015,11,01,16,44,11.00
2015,11,01,16,45,10.70
2015,11,01,16,46,9.00
2015,11,01,16,47,8.50
2015,11,01,16,48,7.00
2015,11,01,16,49,7.00
2015,11,01,16,50,7.00
2015,11,01,16,51,6.00
2015,11,01,16,52,5.00
2015,11,01,16,53,5.00
2015,11,01,16,54,5.00
2015,11,01,16,55,5.00
2015,11,01,16,56,0.70
2015,11,01,16,57,0.00
2015,11,01,16,58,0.00
2015,11,01,16,59,0.00
2015,11,01,17,00,0.00
2015,11,01,17,01,0.00
2015,11,01,17,02,0.00
2015,11,01,17,03,0.00
2015,11,01,17,04,0.00
2015,11,01,17,05,0.00
2015,11,01,17,06,0.00
2015,11,01,17,07,0.00
2015,11,01,17,08,0.00
2015,11,01,17,09,0.00
2015,11,01,17,10,0.00
2015,11,01,17,11,0.00
2015,11,01,17,12,0.00
2015,11,01,17,13,0.00
2015,11,01,17,14,0.00
2015,11,01,17,15,0.00
2015,11,01,17,16,0.00
2015,11,01,17,17,0.00
2015,11,01,17,18,0.00
2015,11,01,17,19,0.00
2015,11,01,17,20,0.00
2015,11,01,17,21,0.00
2015,11,01,17,22,0.00
2015,11,01,17,23,0.00
2015,11,01,17,24,0.00
2015,11,01,17,25,0.00
2015,11,01,17,26,0.00
2015,11,01,17,27,0.00
2015,11,01,17,28,0.00
2015,11,01,17,29,0.00
2015,11,01,17,30,0.00
2015,11,01,17,31,0.00
2015,11,01,17,32,0.00
2015,11,01,17,33,0.00
2015,11,01,17,34,0.00
2015,11,01,17,35,0.00
2015,11,01,17,36,0.00
2015,11,01,17,37,0.00